Weather History for Valparaiso, FL

Change the Weather History Date:

Saturday, February 9, 2013

  Actual Average Record
Temperature  
Mean Temperature 52 °F -  
Max Temperature 61 °F 60 °F 64 °F (2014)
Min Temperature 44 °F 33 °F 41 °F (2014)
Degree Days  
Heating Degree Days 12    
Growing Degree Days 2 (Base 50)    
Moisture  
Dew Point 45 °F    
Average Humidity 75    
Maximum Humidity 95    
Minimum Humidity 46    
Precipitation  
Precipitation 0.00 in - - ()
Sea Level Pressure  
Sea Level Pressure 30.20 in    
Wind  
Wind Speed 7 mph (NE)    
Max Wind Speed 10 mph    
Max Gust Speed -    
Visibility 10 miles    
Events      
Averages and records for this station are not official NWS values.
T = Trace of Precipitation, MM = Missing Value Source: NWS Daily Summary

Daily Weather History Graph

Daily Weather History Graph

Search for Another Location

Airport:

Trip Planner

Search our weather history database for the weather conditions in past years. The results will help you decide how hot, cold, wet, or windy it might be!

Date:

Astronomy

Feb. 09, 2013 Rise Set
Actual Time 6:31 AM CST 5:29 PM CST
Civil Twilight 6:06 AM CST 5:54 PM CST
Nautical Twilight 5:38 AM CST 6:22 PM CST
Astronomical Twilight 5:10 AM CST 6:51 PM CST
Moon 5:43 AM CST (2/9) 5:09 PM CST (2/9)
Length of Visible Light 11h 47m
Length of Day
10h 58m
Waning Crescent, 0% of the Moon is Illuminated
Feb 9
Waning Crescent
Feb 10
New
Feb 17
First Quarter
Feb 25
Full
Mar 4
Last Quarter

Hourly Weather History & Observations

Time (CST) Temp. Windchill Dew Point Humidity Pressure Visibility Wind Dir Wind Speed Gust Speed Precip Events Conditions
1:16 AM 53.6 °F - 48.2 °F 82% 30.15 in 10.0 mi NNE 8.1 mph - N/A   Mostly Cloudy
1:55 AM 54.7 °F - 48.9 °F 81% 30.16 in 10.0 mi NNE 6.9 mph - N/A   Mostly Cloudy
2:45 AM 55.4 °F - 48.2 °F 77% 30.16 in 10.0 mi North 9.2 mph - N/A   Overcast
2:55 AM 55.2 °F - 48.6 °F 78% 30.18 in 10.0 mi NNE 9.2 mph - N/A   Overcast
3:19 AM 53.6 °F - 46.4 °F 77% 30.18 in 10.0 mi NNE 10.4 mph - N/A   Scattered Clouds
3:21 AM 53.6 °F - 46.4 °F 77% 30.18 in 10.0 mi NNE 10.4 mph - N/A   Scattered Clouds
3:25 AM 51.8 °F - 46.4 °F 82% 30.19 in 10.0 mi North 6.9 mph - N/A   Mostly Cloudy
3:53 AM 51.8 °F - 44.6 °F 76% 30.20 in 10.0 mi NNE 8.1 mph - N/A   Scattered Clouds
3:55 AM 50.7 °F - 44.2 °F 78% 30.20 in 10.0 mi NNE 8.1 mph - N/A   Partly Cloudy
4:55 AM 47.5 °F - 43.5 °F 86% 30.21 in 10.0 mi North 8.1 mph - N/A   Clear
5:55 AM 45.5 °F 41.8 °F 42.4 °F 89% 30.20 in 10.0 mi NNE 6.9 mph - N/A   Partly Cloudy
6:55 AM 44.4 °F 40.0 °F 41.7 °F 90% 30.23 in 10.0 mi NNE 8.1 mph - N/A   Partly Cloudy
7:55 AM 46.6 °F - 40.8 °F 80% 30.25 in 10.0 mi NNE 9.2 mph - N/A   Partly Cloudy
8:55 AM 50.4 °F - 39.2 °F 66% 30.26 in 10.0 mi ENE 6.9 mph - N/A   Partly Cloudy
9:55 AM 55.4 °F - 37.4 °F 51% 30.25 in 10.0 mi East 8.1 mph - N/A   Clear
10:55 AM 57.7 °F - 37.0 °F 46% 30.26 in 10.0 mi Variable 3.5 mph - N/A   Mostly Cloudy
11:55 AM 58.5 °F - 42.3 °F 55% 30.24 in 10.0 mi South 5.8 mph - N/A   Mostly Cloudy
12:55 PM 61.3 °F - 40.5 °F 46% 30.21 in 10.0 mi Variable 6.9 mph - N/A   Mostly Cloudy
1:55 PM 61.0 °F - 43.0 °F 52% 30.20 in 10.0 mi SSE 8.1 mph - N/A   Scattered Clouds
2:55 PM 60.6 °F - 44.8 °F 56% 30.19 in 10.0 mi South 9.2 mph - N/A   Scattered Clouds
3:56 PM 60.1 °F - 48.7 °F 66% 30.19 in 10.0 mi South 8.1 mph - N/A   Scattered Clouds
4:55 PM 58.5 °F - 49.6 °F 72% 30.18 in 10.0 mi SSE 3.5 mph - N/A   Scattered Clouds
5:55 PM 55.4 °F - 50.2 °F 83% 30.16 in 10.0 mi SSE 4.6 mph - N/A   Scattered Clouds
6:55 PM 55.0 °F - 50.7 °F 85% 30.17 in 10.0 mi Calm Calm - N/A   Scattered Clouds
7:55 PM 54.3 °F - 50.4 °F 86% 30.19 in 10.0 mi North 1.2 mph - N/A   Scattered Clouds
8:55 PM 51.4 °F - 48.9 °F 91% 30.19 in 10.0 mi NNE 2.3 mph - N/A   Partly Cloudy
9:55 PM 50.7 °F - 48.6 °F 92% 30.19 in 10.0 mi NNE 1.2 mph - N/A   Partly Cloudy
10:55 PM 49.6 °F - 47.8 °F 94% 30.19 in 10.0 mi NNW 2.3 mph - N/A   Partly Cloudy
11:55 PM 48.2 °F - 46.9 °F 95% 30.17 in 7.0 mi North 3.5 mph - N/A   Partly Cloudy